| time (UTC) | temp F | wind direction | speed MPH | gust MPH | rain 1hr in | rain 24hr in | rain mn in | humidity % | barometer mb |
| 20260510004516 | 77 | 0.0 | 0.0 | 0.00 | 0.00 | 0.00 | 33 | 1015.0 | |
| 20260510001522 | 77 | 0.0 | 0.0 | 0.00 | 0.00 | 0.00 | 31 | 1015.3 | |
| 20260510000034 | 77 | 0.0 | 0.0 | 0.00 | 0.00 | 0.00 | 31 | 1015.5 | |
| 20260509234529 | 77 | 0.0 | 0.0 | 0.00 | 0.00 | 0.00 | 35 | 1015.6 | |
| 20260509230026 | 78 | 0.0 | 0.0 | 0.00 | 0.00 | 0.00 | 38 | 1016.1 | |
| 20260509223019 | 81 | 0.0 | 0.0 | 0.00 | 0.00 | 0.00 | 36 | 1016.5 | |
| 20260509221525 | 81 | 0.0 | 0.0 | 0.00 | 0.00 | 0.00 | 36 | 1016.9 | |
| 20260509220024 | 81 | 0.0 | 0.0 | 0.00 | 0.00 | 0.00 | 37 | 1017.1 | |
| 20260509214528 | 80 | 0.0 | 0.0 | 0.00 | 0.00 | 0.00 | 38 | 1017.4 | |
| 20260509211521 | 77 | 0.0 | 0.0 | 0.00 | 0.00 | 0.00 | 43 | 1017.8 | |
| 20260509210023 | 77 | 0.0 | 0.0 | 0.00 | 0.00 | 0.00 | 44 | 1017.8 | |
| 20260509204526 | 76 | 0.0 | 0.0 | 0.00 | 0.00 | 0.00 | 44 | 1017.9 | |
| 20260509203034 | 76 | 0.0 | 0.0 | 0.00 | 0.00 | 0.00 | 44 | 1018.0 | |
| 20260509194504 | 74 | 0.0 | 0.0 | 0.00 | 0.00 | 0.00 | 45 | 1018.6 | |
| 20260509191514 | 71 | 0.0 | 0.0 | 0.00 | 0.00 | 0.00 | 49 | 1018.8 | |
| 20260509190022 | 69 | 0.0 | 0.0 | 0.00 | 0.00 | 0.00 | 51 | 1018.9 | |
| 20260509184515 | 67 | 0.0 | 0.0 | 0.00 | 0.00 | 0.00 | 56 | 1019.2 | |
| 20260509181512 | 66 | 0.0 | 0.0 | 0.00 | 0.00 | 0.00 | 61 | 1019.4 | |
| 20260509180019 | 64 | 0.0 | 0.0 | 0.00 | 0.00 | 0.00 | 62 | 1019.5 | |
| 20260509174528 | 63 | 0.0 | 0.0 | 0.00 | 0.00 | 0.00 | 66 | 1019.5 | |
| 20260509173006 | 62 | 0.0 | 0.0 | 0.00 | 0.00 | 0.00 | 68 | 1019.9 | |
| 20260509171509 | 61 | 0.0 | 0.0 | 0.00 | 0.00 | 0.00 | 69 | 1020.0 | |
| 20260509164519 | 59 | 0.0 | 0.0 | 0.00 | 0.00 | 0.00 | 72 | 1020.2 | |
| 20260509163027 | 58 | 0.0 | 0.0 | 0.00 | 0.00 | 0.00 | 75 | 1020.3 | |
| 20260509161507 | 57 | 0.0 | 0.0 | 0.00 | 0.00 | 0.00 | 78 | 1020.5 | |
| 20260509160015 | 55 | 0.0 | 0.0 | 0.00 | 0.00 | 0.00 | 82 | 1020.5 | |
| 20260509154518 | 54 | 0.0 | 0.0 | 0.00 | 0.00 | 0.00 | 86 | 1020.9 | |
| 20260509153028 | 52 | 0.0 | 0.0 | 0.00 | 0.00 | 0.00 | 89 | 1020.8 | |
| 20260509150009 | 49 | 0.0 | 0.0 | 0.00 | 0.00 | 0.00 | 91 | 1021.1 | |
| 20260509144518 | 48 | 0.0 | 0.0 | 0.00 | 0.00 | 0.00 | 91 | 1021.1 | |
| 20260509143020 | 47 | 0.0 | 0.0 | 0.00 | 0.00 | 0.00 | 91 | 1021.2 | |
| 20260509140027 | 45 | 0.0 | 0.0 | 0.00 | 0.00 | 0.00 | 89 | 1021.1 | |
| 20260509134526 | 44 | 0.0 | 0.0 | 0.00 | 0.00 | 0.00 | 88 | 1021.1 | |
| 20260509133018 | 44 | 0.0 | 0.0 | 0.00 | 0.00 | 0.00 | 88 | 1021.0 | |
| 20260509131528 | 44 | 0.0 | 0.0 | 0.00 | 0.00 | 0.00 | 88 | 1020.9 | |
| 20260509130026 | 45 | 0.0 | 0.0 | 0.00 | 0.00 | 0.00 | 88 | 1021.1 | |
| 20260509124525 | 45 | 0.0 | 0.0 | 0.00 | 0.00 | 0.00 | 88 | 1021.1 | |
| 20260509123019 | 45 | 0.0 | 0.0 | 0.00 | 0.00 | 0.00 | 88 | 1021.2 | |
| 20260509121520 | 45 | 0.0 | 0.0 | 0.00 | 0.00 | 0.00 | 87 | 1021.3 | |
| 20260509120024 | 46 | 0.0 | 0.0 | 0.00 | 0.00 | 0.00 | 87 | 1021.5 | |
| 20260509114528 | 46 | 0.0 | 0.0 | 0.00 | 0.00 | 0.00 | 87 | 1021.6 | |
| 20260509113027 | 46 | 0.0 | 0.0 | 0.00 | 0.00 | 0.00 | 87 | 1021.4 | |
| 20260509111503 | 47 | 0.0 | 0.0 | 0.00 | 0.00 | 0.00 | 86 | 1021.4 | |
| 20260509110004 | 47 | 0.0 | 0.0 | 0.00 | 0.00 | 0.00 | 86 | 1021.4 | |
| 20260509104506 | 47 | 0.0 | 0.0 | 0.00 | 0.00 | 0.00 | 86 | 1021.5 | |
| 20260509103006 | 48 | 0.0 | 0.0 | 0.00 | 0.00 | 0.00 | 86 | 1021.6 | |
| 20260509101512 | 48 | 0.0 | 0.0 | 0.00 | 0.00 | 0.00 | 86 | 1021.8 | |
| 20260509100008 | 48 | 0.0 | 0.0 | 0.00 | 0.00 | 0.00 | 85 | 1021.8 | |
| 20260509094504 | 49 | 0.0 | 0.0 | 0.00 | 0.00 | 0.00 | 85 | 1021.9 | |
| 20260509093008 | 49 | 0.0 | 0.0 | 0.00 | 0.00 | 0.00 | 85 | 1022.0 | |
| 20260509091507 | 49 | 0.0 | 0.0 | 0.00 | 0.00 | 0.00 | 84 | 1022.1 | |
| 20260509090009 | 50 | 0.0 | 0.0 | 0.00 | 0.00 | 0.00 | 84 | 1022.1 | |
| 20260509084506 | 50 | 0.0 | 0.0 | 0.00 | 0.00 | 0.00 | 83 | 1022.3 | |
| 20260509083003 | 51 | 0.0 | 0.0 | 0.00 | 0.00 | 0.00 | 82 | 1022.4 | |
| 20260509081521 | 51 | 0.0 | 0.0 | 0.00 | 0.00 | 0.00 | 81 | 1022.3 | |
| 20260509080008 | 52 | 0.0 | 0.0 | 0.00 | 0.00 | 0.00 | 81 | 1022.3 | |
| 20260509074509 | 52 | 0.0 | 0.0 | 0.00 | 0.00 | 0.00 | 80 | 1022.3 | |
| 20260509073025 | 52 | 0.0 | 0.0 | 0.00 | 0.00 | 0.00 | 80 | 1022.5 | |
| 20260509071514 | 53 | 0.0 | 0.0 | 0.00 | 0.00 | 0.00 | 80 | 1022.5 | |
| 20260509070024 | 53 | 0.0 | 0.0 | 0.00 | 0.00 | 0.00 | 79 | 1022.5 | |
| 20260509064512 | 54 | 0.0 | 0.0 | 0.00 | 0.00 | 0.00 | 78 | 1022.5 | |
| 20260509061511 | 55 | 0.0 | 0.0 | 0.00 | 0.00 | 0.00 | 76 | 1022.5 | |
| 20260509060005 | 55 | 0.0 | 0.0 | 0.00 | 0.00 | 0.00 | 75 | 1022.6 | |
| 20260509054511 | 55 | 0.0 | 0.0 | 0.00 | 0.00 | 0.00 | 74 | 1022.6 | |
| 20260509053020 | 56 | 0.0 | 0.0 | 0.00 | 0.00 | 0.00 | 73 | 1022.6 | |
| 20260509051513 | 57 | 0.0 | 0.0 | 0.00 | 0.00 | 0.00 | 72 | 1022.4 | |
| 20260509050014 | 57 | 0.0 | 0.0 | 0.00 | 0.00 | 0.00 | 71 | 1022.4 | |
| 20260509044514 | 58 | 0.0 | 0.0 | 0.00 | 0.00 | 0.00 | 69 | 1022.2 | |
| 20260509043014 | 59 | 0.0 | 0.0 | 0.00 | 0.00 | 0.00 | 67 | 1022.1 | |
| 20260509041512 | 60 | 0.0 | 0.0 | 0.00 | 0.00 | 0.00 | 66 | 1022.0 | |
| 20260509040018 | 61 | 0.0 | 0.0 | 0.00 | 0.00 | 0.00 | 64 | 1021.9 | |
| 20260509034516 | 62 | 0.0 | 0.0 | 0.00 | 0.00 | 0.00 | 63 | 1021.9 | |
| 20260509033016 | 63 | 0.0 | 0.0 | 0.00 | 0.00 | 0.00 | 60 | 1021.9 | |
| 20260509031516 | 64 | 0.0 | 0.0 | 0.00 | 0.00 | 0.00 | 59 | 1021.7 | |
| 20260509023019 | 66 | 0.0 | 0.0 | 0.00 | 0.00 | 0.00 | 54 | 1021.3 | |
| 20260509021515 | 67 | 0.0 | 0.0 | 0.00 | 0.00 | 0.00 | 53 | 1021.3 | |
| 20260509020004 | 68 | 0.0 | 0.0 | 0.00 | 0.00 | 0.00 | 51 | 1021.2 | |
| 20260509014512 | 68 | 0.0 | 0.0 | 0.00 | 0.00 | 0.00 | 52 | 1021.1 | |
| 20260509013008 | 69 | 0.0 | 0.0 | 0.00 | 0.00 | 0.00 | 49 | 1021.2 | |
| 20260509011511 | 69 | 0.0 | 0.0 | 0.00 | 0.00 | 0.00 | 49 | 1021.4 | |
| 20260509010018 | 69 | 0.0 | 0.0 | 0.00 | 0.00 | 0.00 | 48 | 1021.5 |